Weather in Irun

Spain     43°20′10″N   1°47′48″W
temp.,
°C
wind,
m/s
gust,
m/s
humid.,
%
clouds,
%
prec.,
mm/h
press.,
hPa
HPBL,
m
15 may, sat
sat1523:00+10sse2183100 0.1 101735
02:00+11s2369100 0.1 101470
05:00+12s2255100 0.0 101342
08:00+12sse3462100 0.0 101392
11:00+12s3570100 0.0 1011169
14:00+14nnw2374100 0.0 1013405
17:00+12nne0092100 0.1 1013218
20:00+13ssw1196100 0.6 101232
16 may, sun
sun1623:00+14s2397100 0.8 101260
02:00+14s3595100 0.9 101088
05:00+14s359397 0.0 1009101
08:00+14wnw2396100 0.3 1012138
11:00+12wnw2798100 2.6 1014506
14:00+12nnw1396100 3.6 1015336
17:00+10wsw1396100 0.8 1016147
20:00+10s1295100 1.1 101750
17 may, mon
mon1723:00+10sse1195100 0.8 101727
02:00+10sw1195100 0.9 101742
05:00+10wsw1296100 0.6 101860
08:00+9s2295100 0.9 101993
11:00+12wnw2582100 0.3 10211012
14:00+14wnw576282 0.6 10211456
17:00+14nw576290 0.1 10221347
20:00+11wnw367697 0.1 1023916
18 may, tue
tue1823:00+10wsw1287100 0.1 102572
02:00+8w12938 0.1 102567
05:00+8sw119497 0.1 102673
08:00+10wnw127894 0.2 102652
11:00+14nw225654 0.0 10261112
14:00+15n32535 0.0 10261238
17:00+15n32495 0.0 1025975
20:00+12n2266100 0.0 1026271
19 may, wed
wed1923:00+8s1180100 0.0 102813
02:00+6s22714 0.0 102818
05:00+6s225972 0.0 102718
08:00+8s225699 0.0 102741
11:00+15nne214178 0.0 1026663
14:00+18n324260 0.0 1025950
17:00+18n32465 0.0 1024759
20:00+15nne116699 0.0 1023128